Regional Weather Roundup
Issued by NWS

Home | Current Version | Previous Version | Graphics & Text | Print | Product List | Glossary On
Versions: 1 2 3 4 5 6 7 8 9 10 11 12 13 14 15 16 17 18 19 20 21 22 23 24 25 26 27 28 29 30 31 32 33 34 35 36 37 38 39 40 41 42 43 44 45 46 47 48 49 50
000
ASUS43 KLOT 251708
RWRIL

ILLINOIS REGIONAL WEATHER ROUNDUP
NATIONAL WEATHER SERVICE CHICAGO/ROMEOVILLE IL
1200 PM CDT SAT MAR 25 2017

NOTE: "FAIR" INDICATES FEW OR NO CLOUDS BELOW 12,000 FEET WITH NO
SIGNIFICANT WEATHER AND/OR OBSTRUCTIONS TO VISIBILITY.

* THESE STATIONS ARE NOT UNDER NWS QUALITY CONTROL. THEY ALSO MAY NOT
  REPORT WEATHER SUCH AS PRECIPITATION OR FOG.

ILZ001-002-007-009-015-016-024-251800-
NORTHWEST ILLINOIS

CITY           SKY/WX    TMP DP  RH WIND       PRES   REMARKS
MOLINE         CLOUDY    45  42  89 E14       29.93S FOG
STERLING*      CLOUDY    44  43  96 E20G28    29.96F
SAVANNA*       RAIN      42  40  95 NE22G31   29.97R
$$

ILZ003-004-008-010-011-017-018-251800-
NORTH CENTRAL ILLINOIS

CITY           SKY/WX    TMP DP  RH WIND       PRES   REMARKS
ROCKFORD       LGT RAIN  42  39  89 E20G26    30.03R FOG
FREEPORT*      LGT RAIN  40  39  97 NE16      30.02S
ROCHELLE*      CLOUDY    42  41  97 NE16      30.01R
DE KALB*       CLOUDY    41  40  96 NE17G24   30.01F
PERU*          CLOUDY    49  47  93 E18       29.97S FOG
$$

ILZ005-006-012>014-019>023-251800-
NORTHEAST ILLINOIS

CITY           SKY/WX    TMP DP  RH WIND       PRES   REMARKS
CHICAGO-OHARE  LGT RAIN  42  39  89 NE16      30.04S
CHICAGO-MIDWAY CLOUDY    44  43  96 N10       30.03F
AURORA         CLOUDY    44  41  89 NE23G30   30.01R
LANSING*       LGT RAIN  44  44 100 N5        30.02F
JOLIET*        CLOUDY    49  47  96 NE9       30.01S
WAUKEGAN       RAIN      38  38 100 NE15      30.08F FOG     WCI  29
DUPAGE AIRPORT CLOUDY    42  42 100 NE16      30.02S
KANKAKEE*      CLOUDY    57  56  97 NE8       29.99S
WHEELING       LGT RAIN  39  39 100 NE12      30.07S FOG     WCI  32
MORRIS*        CLOUDY    49  47  93 NE8       29.98F
ROMEOVILLE*    CLOUDY    45  45 100 NE9       30.01S FOG
NORTHERLY ISL    N/A     40  39  97 MISG        N/A
$$

LMZ740>746-251800-
SOUTHERN LAKE MICHIGAN

STATION/POSITION SKY/WX   TEMP    WIND        PRES    VSBY  WAVE
                          AIR SEA DIR/SP/G                  HT/PER
                          (F)     (DEG/KT/KT) (MB)    (MI)  (FT/S)
HARRISON CRIB                     360/ 14/ 15   N/A
BURNHAM HARBOR                    350/ 11/ 15   N/A
CALUMET HARBOR                    340/ 12/ 14 1016.3F
BURNS HARBOR               40     350/  2/  4 1016.9F
MICHIGAN CITY              54      90/ 10/ 12   N/A
$$

ILZ025>027-034>036-040-047-049-050-058-095>099-251800-
WEST-CENTRAL ILLINOIS

CITY           SKY/WX    TMP DP  RH WIND       PRES   REMARKS
QUINCY         MOSUNNY   65  54  67 S12       29.86S
GALESBURG*     CLOUDY    53  53 100 CALM      29.89S FOG
MACOMB*        CLOUDY    60  59  97 S8        29.89F
JACKSONVILLE*  CLOUDY    62  55  78 S13G18    29.90R
PITTSFIELD*    CLOUDY    60  55  85 S13       29.89S
$$

ILZ028>032-037-038-041>044-048-051>054-059>061-251800-
CENTRAL ILLINOIS

CITY           SKY/WX    TMP DP  RH WIND       PRES   REMARKS
PONTIAC        CLOUDY    60  58  94 E10       29.96S
BLOOMINGTON    CLOUDY    61  54  77 S15G21    29.94S
DECATUR        CLOUDY    66  51  58 S18G25    29.92F
PEORIA         PTSUNNY   64  56  75 S14       29.90S
LACON*         CLOUDY    58  55  89 E9        29.92S
LINCOLN*       CLOUDY    62  55  77 S14       29.92S
SPRINGFIELD    CLOUDY    63  54  72 S16G26    29.91S
TAYLORVILLE    CLOUDY    63  52  67 S17G24    29.92S
$$

ILZ033-039-045-046-055>057-062-063-251800-
EAST-CENTRAL ILLINOIS

CITY           SKY/WX    TMP DP  RH WIND       PRES   REMARKS
CHAMPAIGN      CLOUDY    69  51  52 S17       29.94F
RANTOUL*       CLOUDY    67  54  63 S9        29.96S
MATTOON        CLOUDY    67  53  61 S18G29    29.94R
PARIS*         CLOUDY    68  54  60 S22G28    29.97S
$$

ILZ079-100>102-251800-
SOUTHWEST ILLINOIS

CITY           SKY/WX    TMP DP  RH WIND       PRES   REMARKS
ALTON          CLOUDY    61  55  82 SE12      29.91S
BELLEVILLE     SUNNY     62  59  91 SE6       29.88F
CAHOKIA*       CLOUDY    61  54  77 SE8       29.88F
SPARTA*        CLOUDY    63  55  75 S23       29.89F
$$

ILZ064>066-069>071-074>076-080>082-084>086-088>090-092>094-251800-
SOUTH-CENTRAL ILLINOIS

CITY           SKY/WX    TMP DP  RH WIND       PRES   REMARKS
CARBONDALE     CLOUDY    64  57  78 S17G26    29.92S
CAIRO*         DRIZZLE   63  58  83 S18G25    29.94R
EFFINGHAM*     CLOUDY    66  55  66 SE13G22   29.95F
MARION         CLOUDY    66  59  77 S17G29    29.94S
MT. VERNON     CLOUDY    67  56  67 S17G25    29.92F
CENTRALIA*     CLOUDY    69  57  66 S21G26    29.90F
SALEM*         CLOUDY    67  54  61 SE14G22   29.92S
METROPOLIS*    PTSUNNY   67  58  73 S13G22    29.95F
$$

ILZ067-068-072-073-078-083-087-091-251800-
SOUTHEAST ILLINOIS

CITY           SKY/WX    TMP DP  RH WIND       PRES   REMARKS
LAWRENCEVILLE  CLOUDY    70  54  56 S21       29.97S
FLORA*         CLOUDY    69  57  64 S17G24    29.94F
FAIRFIELD*     PTSUNNY   66  55  67 SE10      29.94S
HARRISBURG*    CLOUDY    66  58  74 S14G20    29.96S
ROBINSON*      CLOUDY    68  53  59 S22       29.97F
CARMI*         CLOUDY    67  55  66 S18G24    29.95F
$$

ABBREVIATIONS USED IN REMARKS
   TC - TEMPERATURE IN CELSIUS
  WCI - WIND CHILL INDEX
   HX - HEAT INDEX
  VSB - VISIBILITY
$$





USA.gov is the U.S. government's official web portal to all federal, state and local government web resources and services.